Showing default

COSMOS 2253, 22688

Orbit data source: Space-Track

COSMOS 2253, 22688 is a payload satellite owned by VKS (CIS) in LEO that was launched on Thu, 24 Jun 1993 UTC via a TSIKLON-3 launch vehicle from the Plesetsk Missile And Space Complex (PKMTR). Payload-class satellites include a variety of spacecraft equipped with specific instruments for various scientific and technological missions. These include communications satellites like Starlink; space stations such as the ISS; scientific satellites like the Hubble; Earth observation satellites from companies like Planet Labs, Umbra, and HawkEye 360; GPS; miniature CubeSats for education and research; and military/defense satellites.

Loading next visibility...
Identifier
22688, 1993-038B
Orbit
LEO
Country
Flag of CISCIS
Related business
Manufacturer
NPO PM
Mission
Defense Communications
Bus & Motor
STRELA-3, Unknown motor
Mass
225 kg wet, 225 kg dry
Launch date (UTC)
1993-06-24 (33 years ago)
Launch vehicle
TSIKLON-3
Launch site
Plesetsk Missile And Space Complex (PKMTR)
Object type
Payload
Rocket body
Debris
Shape & HBR
Cyl, 0.8 m
Radar Cross Section
1.257 m², Medium (>0.1 m² and < 1m²)

Expand to show TLE details & history
Last TLE update: 15 hours ago

TLE from 15 hours ago
0 COSMOS 2253
1 22688U 93038B   26036.24706169  .00000036  00000-0  14399-3 0  9999
2 22688  82.5916 341.3280 0011065 311.9989  48.0159 12.61597157501864
Epoch: 2026-02-05T05:55Z
TLE epoch observation values (Epoch: 2026-02-05T05:55:46.130Z)
Latitude
0.00004°
Longitude
116.98376°
Altitude
1,413.323 km
Speed
7.157 km/s
True Right ascension
22h 45m 18s
True Declination
0° 00' 00"
Sunlit
Object was in daylight at epoch
Visualization orbit readout
Latitude
Unknown
Longitude
Unknown
Altitude
Unknown
Speed
Unknown
Apparent Right ascension
Unknown
Apparent Declination
Unknown
Sunlit
N/A
Visualization observer readout
Local Sidereal Time
23:28:03
Azimuth
Unknown
Elevation
Unknown
Doppler factor
Unknown
Orbital elements
Apogee altitude
1,422.302 km
Perigee altitude
1,405.059 km
Semi-major axis
7,791.817 km
Eccentricity
0.00111
Inclination
82.5916°
RAAN
341.328°
Arg. of periapsis
311.9989°
True anomaly
48.11024°
Mean anomaly
48.0159°
Eccentric anomaly
48.06306°
Mean motion
3.15562 °/min
Orbital period
114.08 mins
BSTAR
0.00014399
Loading maneuver chart data...
Computing Atmospheric mass density...
Loading historical data...
Loading historical data...
Loading historical data...
Loading historical data...
Loading historical data...
Loading historical data...
Loading historical data...

Documentation

Showing up to 5 results
|